[[{"header":{"parameterUnit":"m.s-1","parameterCategory":1,"la1":30.2991,"la2":30.254,"lo1":-89.0895,"lo2":-89.0444,"dy":0.0017,"dx":0.0017,"nx":28,"ny":28,"refTime":"2025-01-23T09:00:00:Z","depth":0,"parameterNumber":2,"parameterNumberName":"U-component_of_WINDS"},"data":[0,0,0,0,0,0,0,0,0,0,0,0,0,0,0,0,0,0,0,0,0,0,0,0,0,0,0,0,0,0,0,0,0,0,0,0,0,0,0,0,0,0,0,0,0,0,0,0,0,0,0,0,0,0,0,0,0,0,-2.4007,-2.4007,0,-2.4034,-2.4035,-2.4035,-2.3945,-2.3942,-2.3939,-2.3937,-2.3966,-2.397,-2.3973,0,0,0,0,0,0,0,0,0,0,0,0,0,-2.3875,-2.3878,-2.4006,-2.4007,-2.4007,-2.4034,-2.4035,-2.4035,-2.3945,-2.3942,-2.3939,-2.3935,-2.3965,-2.3969,-2.3973,0,0,0,0,0,0,0,0,0,0,0,0,0,-2.392,-2.3879,-2.4006,-2.3966,-2.3962,-2.4034,-2.4035,-2.4035,-2.3946,-2.3942,-2.3938,-2.3934,-2.3964,-2.3969,-2.3974,-2.4087,0,0,-2.3989,-2.3991,0,0,0,0,0,0,0,0,-2.3918,-2.3925,-2.3971,-2.3969,-2.3965,-2.3982,-2.3999,-2.4053,-2.3947,-2.3952,-2.3937,-2.3932,-2.3975,-2.3979,-2.3993,-2.4088,-2.409,-2.399,-2.3993,-2.3995,-2.3996,0,0,0,0,0,0,0,-2.3915,-2.3924,-2.4017,-2.3972,-2.3968,-2.3946,-2.3948,-2.4009,-2.3986,-2.3951,-2.3945,-2.3949,-2.3972,-2.3988,-2.3993,-2.409,-2.3989,-2.3994,-2.3997,-2.3999,-2.4277,-2.4281,0,0,0,0,0,0,-2.3917,-2.3922,-2.4017,-2.4018,-2.3931,-2.3951,-2.3953,-2.3981,-2.3985,-2.3982,-2.3953,-2.3945,-2.3982,-2.3987,-2.3994,-2.4125,-2.3995,-2.3999,-2.4002,-2.4272,-2.4278,-2.4282,0,0,0,0,0,0,-2.3915,-2.3926,-2.4015,-2.3968,-2.3978,-2.3958,-2.3989,-2.3983,-2.3999,-2.3986,-2.3982,-2.3973,-2.3979,-2.3987,-2.4064,-2.4125,-2.4002,-2.4006,-2.4267,-2.4274,-2.428,-2.4389,0,0,0,0,0,0,-2.3911,-2.3926,-2.3969,-2.397,-2.3981,-2.4086,-2.3993,-2.3987,-2.4008,-2.3998,-2.4005,-2.4002,-2.3976,-2.4057,-2.4069,-2.4129,-2.401,-2.4262,-2.427,-2.4278,-2.438,-2.4398,-2.4414,0,0,0,0,0,-2.3907,-2.4,-2.3972,-2.3984,-2.4034,-2.4089,-2.4096,-2.4064,-2.4013,-2.4056,-2.4047,-2.4001,-2.4116,-2.4065,-2.4078,-2.4141,-2.4258,-2.4268,-2.4277,-2.4372,-2.4395,-2.4414,0,0,0,0,0,0,-2.4008,-2.3999,-2.3968,-2.4064,-2.4078,-2.4074,-2.4127,-2.4089,-2.4119,-2.4108,-2.4068,-2.407,-2.4154,-2.4155,-2.4099,-2.4249,-2.4178,-2.4191,-2.4246,-2.4267,-2.4284,-2.4282,-2.4014,0,0,0,0,0,-2.4041,-2.4087,-2.4076,-2.4162,-2.417,-2.4148,-2.4171,-2.4145,-2.4158,-2.4164,-2.4161,-2.4175,-2.4214,-2.4241,-2.4276,-2.4379,-2.4379,-2.4429,-2.4446,-2.446,-2.4472,-2.4524,-2.4546,-2.4315,-2.4315,-2.4314,0,0,-2.4111,-2.4111,-2.4143,-2.4182,-2.419,-2.4237,-2.4154,-2.4208,-2.4242,-2.4172,-2.4244,-2.4242,-2.4256,-2.4346,-2.4385,-2.4349,-2.4535,-2.4473,-2.4484,-2.4488,-2.4537,-2.4559,-2.4578,-2.4321,-2.432,-2.4319,0,0,-2.4261,-2.4267,-2.4338,-2.4347,-2.4359,-2.4343,-2.436,-2.4361,-2.4357,-2.4429,-2.4376,-2.4416,-2.4485,-2.4496,-2.4511,-2.4663,-2.4621,-2.4676,-2.4766,-2.4817,-2.4836,-2.4851,-2.4904,-2.4924,-2.4687,-2.4687,-2.4688,0,-2.4346,-2.4416,-2.4379,-2.4436,-2.4454,-2.4392,-2.4462,-2.4473,-2.4497,-2.451,-2.4469,-2.4552,-2.4557,-2.4648,-2.4685,-2.4699,-2.4717,-2.4675,-2.4836,-2.4851,-2.4866,-2.4916,-2.4936,-2.4694,-2.4693,-2.4692,-2.4692,0,-2.4519,-2.4567,-2.4623,-2.4646,-2.467,-2.4734,-2.4707,-2.4736,-2.4707,-2.4696,-2.4768,-2.4771,-2.4805,-2.4825,-2.4798,-2.4911,-2.4888,-2.4843,-2.477,-2.4895,-2.4941,-2.496,-2.4703,-2.4701,-2.4699,-2.4697,0,0,-2.4735,-2.4735,-2.4756,-2.4764,-2.4772,-2.4809,-2.4869,-2.4901,-2.4926,-2.4945,-2.4993,-2.5052,-2.5008,-2.5025,-2.4999,-2.5045,-2.5163,-2.4993,-2.4992,-2.5023,-2.5285,-2.5319,-2.5342,-2.5135,-2.5139,-2.5141,-2.5284,0,-2.4882,-2.4984,-2.4952,-2.5055,-2.5099,-2.5039,-2.5091,-2.5101,-2.5091,-2.5126,-2.5115,-2.5157,-2.5097,-2.5107,-2.5149,-2.514,-2.5215,-2.5129,-2.5179,-2.5181,-2.5177,-2.5366,-2.5403,-2.5537,-2.5302,-2.5305,-2.5307,0,-2.5067,-2.5091,-2.5198,-2.5196,-2.5213,-2.5261,-2.5286,-2.5321,-2.5331,-2.532,-2.5338,-2.5302,-2.536,-2.5287,-2.5366,-2.5308,-2.5327,-2.5325,-2.5329,-2.5332,-2.5251,-2.5373,-2.5579,-2.5599,-2.5335,-2.5333,-2.5331,0,-2.5212,-2.5271,-2.5342,-2.5351,-2.5352,-2.5386,-2.5388,-2.5393,-2.5414,-2.5436,-2.5449,-2.5479,-2.5495,-2.5518,-2.549,-2.544,-2.5573,-2.5498,-2.5565,-2.5565,-2.5595,-2.5593,-2.5806,-2.5609,-2.5609,-2.5608,-2.5608,0,-2.5379,-2.5447,-2.5407,-2.5451,-2.5524,-2.5486,-2.556,-2.5555,-2.556,-2.5601,-2.5551,-2.5591,-2.5552,-2.5589,-2.5567,-2.5635,-2.5643,-2.5635,-2.5629,-2.5639,-2.564,-2.565,-2.564,-2.5614,-2.5613,-2.5612,-2.5611,0,-2.5554,-2.553,-2.5603,-2.5596,-2.5596,-2.565,-2.5644,-2.5684,-2.567,-2.5722,-2.5733,-2.5711,-2.575,-2.5725,-2.5765,-2.5751,-2.5838,-2.582,-2.5835,-2.5829,-2.5897,-2.589,-2.6122,-2.615,-2.5937,-2.5939,-2.5941,0,-2.5662,-2.5712,-2.571,-2.5733,-2.5738,-2.5777,-2.5796,-2.5761,-2.5784,-2.5797,-2.5835,-2.587,-2.5896,-2.5962,-2.595,-2.598,-2.596,-2.604,-2.5965,-2.5973,-2.596,-2.5957,-2.596,-2.6055,-2.6057,-2.6059,-2.6061,0,-2.5855,-2.5839,-2.587,-2.5896,-2.5921,-2.594,-2.5955,-2.5977,-2.5941,-2.5969,-2.6008,-2.6028,-2.6068,-2.6103,-2.6128,-2.6129,-2.6089,-2.6084,-2.6101,-2.6112,-2.6118,-2.6114,-2.5875,-2.6079,-2.6077,-2.6076,-2.6075,-2.6074,-2.5998,-2.6039,-2.6043,-2.6078,-2.6085,-2.61,-2.6136,-2.6125,-2.6157,-2.6186,-2.6163,-2.6209,-2.6216,-2.6244,-2.6251,-2.6286,-2.6254,-2.6279,-2.6285,-2.6291,-2.6299,-2.6113,-2.6291,-2.629,-2.629,-2.6289,-2.6289,0,-2.6187,-2.6186,-2.6218,-2.624,-2.6267,-2.6226,-2.6239,-2.6265,-2.6306,-2.6315,-2.6341,-2.6385,-2.6418,-2.6408,-2.6437,-2.6467,-2.6449,-2.6476,-2.6473,-2.6473,-2.6327,-2.6309,-2.649,-2.649,-2.649,-2.649,-2.649,-2.649,-2.6288,-2.6354,-2.634,-2.6408,-2.6407,-2.6451,-2.6462,-2.6475,-2.6481,-2.6532,-2.6559,-2.6552,-2.6552,-2.6581,-2.6609,-2.6605,-2.6618,-2.6651,-2.664,-2.6504,-2.6484,-2.6465,-2.6448,-2.6654,-2.6655,-2.6783,-2.6784,-2.6785]},{"header":{"parameterUnit":"m.s-1","parameterCategory":1,"la1":30.2991,"la2":30.254,"lo1":-89.0895,"lo2":-89.0444,"dy":0.0017,"dx":0.0017,"nx":28,"ny":28,"refTime":"2025-01-23T09:00:00:Z","depth":0,"parameterNumber":3,"parameterNumberName":"V-component_of_WINDS"},"data":[0,0,0,0,0,0,0,0,0,0,0,0,0,0,0,0,0,0,0,0,0,0,0,0,0,0,0,0,0,0,0,0,0,0,0,0,0,0,0,0,0,0,0,0,0,0,0,0,0,0,0,0,0,0,0,0,0,0,-3.7457,-3.7458,0,-3.7564,-3.7565,-3.7566,-3.7514,-3.7512,-3.7509,-3.7506,-3.7611,-3.7616,-3.7622,0,0,0,0,0,0,0,0,0,0,0,0,0,-3.7204,-3.7209,-3.7457,-3.7458,-3.746,-3.7563,-3.7565,-3.7566,-3.7515,-3.7512,-3.7508,-3.7505,-3.7609,-3.7616,-3.7622,0,0,0,0,0,0,0,0,0,0,0,0,0,-3.7312,-3.721,-3.7457,-3.7447,-3.7447,-3.7563,-3.7565,-3.7567,-3.7516,-3.7512,-3.7507,-3.7504,-3.7607,-3.7615,-3.7623,-3.7754,0,0,-3.7647,-3.7651,0,0,0,0,0,0,0,0,-3.7306,-3.7322,-3.7447,-3.7448,-3.7448,-3.7522,-3.7514,-3.7629,-3.7517,-3.7489,-3.7506,-3.7502,-3.7584,-3.7594,-3.7623,-3.7759,-3.7763,-3.7648,-3.7653,-3.7656,-3.7659,0,0,0,0,0,0,0,-3.7299,-3.7317,-3.7499,-3.7449,-3.7449,-3.7435,-3.7446,-3.7536,-3.7558,-3.7491,-3.7488,-3.7502,-3.7584,-3.7615,-3.7625,-3.7765,-3.7648,-3.7655,-3.766,-3.7663,-3.8012,-3.8016,0,0,0,0,0,0,-3.7292,-3.7311,-3.7496,-3.7502,-3.7366,-3.7443,-3.7455,-3.7502,-3.7557,-3.7562,-3.7505,-3.7499,-3.7604,-3.7616,-3.7628,-3.7784,-3.7656,-3.7664,-3.7668,-3.8007,-3.8013,-3.8017,0,0,0,0,0,0,-3.7287,-3.7309,-3.7491,-3.7406,-3.7428,-3.7452,-3.7505,-3.7506,-3.7538,-3.7568,-3.7571,-3.7533,-3.7601,-3.7617,-3.7723,-3.7787,-3.7667,-3.7675,-3.8002,-3.8009,-3.8015,-3.8097,0,0,0,0,0,0,-3.728,-3.7308,-3.7359,-3.7407,-3.7433,-3.7586,-3.7509,-3.7511,-3.7552,-3.7545,-3.7595,-3.7599,-3.7599,-3.7711,-3.7731,-3.7796,-3.7681,-3.7996,-3.8005,-3.8013,-3.8089,-3.8106,-3.8121,0,0,0,0,0,-3.7271,-3.7378,-3.7362,-3.7385,-3.7498,-3.759,-3.7604,-3.7603,-3.7558,-3.7608,-3.7627,-3.7598,-3.7777,-3.7723,-3.7744,-3.7813,-3.7992,-3.8003,-3.8012,-3.8082,-3.8103,-3.812,0,0,0,0,0,0,-3.7335,-3.7384,-3.7367,-3.7492,-3.7538,-3.7581,-3.7645,-3.7625,-3.7683,-3.7674,-3.7669,-3.768,-3.779,-3.7812,-3.775,-3.7941,-3.7877,-3.7892,-3.7923,-3.7943,-3.7959,-3.795,-3.7688,0,0,0,0,0,-3.7364,-3.7437,-3.7474,-3.7581,-3.7605,-3.7621,-3.7662,-3.7657,-3.7703,-3.7721,-3.7748,-3.7792,-3.7858,-3.7902,-3.7965,-3.8092,-3.8101,-3.815,-3.8165,-3.8178,-3.8191,-3.8258,-3.828,-3.805,-3.805,-3.805,0,0,-3.7424,-3.7459,-3.7505,-3.7595,-3.7629,-3.7703,-3.7638,-3.7718,-3.7772,-3.7733,-3.7834,-3.7856,-3.7904,-3.8022,-3.8074,-3.8043,-3.8256,-3.8191,-3.8201,-3.8207,-3.8271,-3.8292,-3.8312,-3.8057,-3.8056,-3.8055,0,0,-3.757,-3.7606,-3.7698,-3.7734,-3.7787,-3.7797,-3.7819,-3.7866,-3.7879,-3.7981,-3.7952,-3.8015,-3.813,-3.8166,-3.8199,-3.8358,-3.8332,-3.8378,-3.8461,-3.8526,-3.8544,-3.856,-3.8616,-3.8636,-3.8391,-3.8391,-3.8391,0,-3.7638,-3.7749,-3.7747,-3.783,-3.787,-3.7839,-3.7931,-3.7965,-3.8036,-3.8063,-3.8027,-3.8169,-3.82,-3.8324,-3.8363,-3.8392,-3.8415,-3.8372,-3.8542,-3.8558,-3.8573,-3.8626,-3.8647,-3.8396,-3.8396,-3.8395,-3.8395,0,-3.7828,-3.7906,-3.7973,-3.8044,-3.809,-3.8178,-3.8187,-3.8235,-3.8226,-3.8239,-3.8342,-3.8378,-3.8447,-3.8476,-3.8468,-3.8599,-3.8578,-3.8543,-3.8478,-3.86,-3.8649,-3.867,-3.8404,-3.8402,-3.8401,-3.8399,0,0,-3.8018,-3.8086,-3.8111,-3.8141,-3.8198,-3.8256,-3.8341,-3.841,-3.845,-3.8499,-3.8569,-3.8666,-3.8634,-3.8671,-3.8666,-3.8724,-3.8846,-3.8682,-3.8683,-3.871,-3.8991,-3.9016,-3.904,-3.883,-3.8834,-3.8837,-3.8986,0,-3.8168,-3.8318,-3.8318,-3.8456,-3.8526,-3.8497,-3.8571,-3.8612,-3.8627,-3.8687,-3.8702,-3.8771,-3.8723,-3.8746,-3.8802,-3.882,-3.8902,-3.8809,-3.8893,-3.8896,-3.888,-3.9066,-3.9093,-3.9232,-3.9005,-3.9009,-3.9011,0,-3.8362,-3.8419,-3.8564,-3.8609,-3.8638,-3.8705,-3.8767,-3.8825,-3.8871,-3.8877,-3.8919,-3.8905,-3.8989,-3.8923,-3.9038,-3.8974,-3.9008,-3.9022,-3.9028,-3.9034,-3.896,-3.9076,-3.9277,-3.9297,-3.9042,-3.9039,-3.9037,0,-3.8484,-3.8597,-3.8698,-3.8725,-3.878,-3.8827,-3.8852,-3.8894,-3.8935,-3.8988,-3.9014,-3.9077,-3.911,-3.9158,-3.9161,-3.9113,-3.9276,-3.921,-3.9282,-3.9282,-3.9317,-3.9315,-3.9525,-3.9341,-3.9341,-3.934,-3.934,0,-3.8651,-3.874,-3.8753,-3.8816,-3.8914,-3.8913,-3.901,-3.903,-3.9068,-3.9131,-3.911,-3.917,-3.917,-3.9231,-3.9234,-3.9327,-3.9343,-3.9349,-3.9348,-3.9351,-3.935,-3.9372,-3.9362,-3.9346,-3.9345,-3.9344,-3.9343,0,-3.8804,-3.8816,-3.8924,-3.8968,-3.8981,-3.9051,-3.9087,-3.9145,-3.9158,-3.9239,-3.9258,-3.9277,-3.9347,-3.9355,-3.9436,-3.9438,-3.955,-3.954,-3.9536,-3.9533,-3.9604,-3.9597,-3.9835,-3.9866,-3.9663,-3.9665,-3.9667,0,-3.8908,-3.8977,-3.9028,-3.907,-3.9097,-3.9165,-3.9207,-3.9207,-3.9251,-3.9308,-3.9359,-3.9427,-3.9482,-3.9595,-3.9615,-3.9677,-3.9667,-3.9746,-3.9676,-3.9676,-3.9667,-3.9662,-3.9668,-3.976,-3.9762,-3.9764,-3.9765,0,-3.9093,-3.9095,-3.9157,-3.9221,-3.9271,-3.9321,-3.9368,-3.9403,-3.9409,-3.9459,-3.9531,-3.9574,-3.9658,-3.9725,-3.9786,-3.9809,-3.9788,-3.9787,-3.9807,-3.9809,-3.9803,-3.9806,-3.9571,-3.9781,-3.978,-3.9779,-3.9778,-3.9777,-3.9224,-3.9282,-3.9327,-3.9396,-3.9431,-3.9475,-3.9532,-3.9551,-3.9612,-3.9681,-3.9678,-3.9757,-3.9799,-3.9878,-3.9906,-3.9967,-3.9941,-3.9969,-3.9976,-3.9983,-3.999,-3.9795,-3.9978,-3.9978,-3.9977,-3.9977,-3.9977,0,-3.9405,-3.9433,-3.9496,-3.9563,-3.9616,-3.9593,-3.9643,-3.9689,-3.976,-3.9801,-3.9856,-3.9938,-4.0003,-4.0028,-4.0092,-4.0135,-4.0127,-4.0152,-4.0148,-4.0153,-4.0011,-3.9987,-4.0157,-4.0157,-4.0157,-4.0157,-4.0157,-4.0157,-3.9506,-3.9604,-3.9612,-3.9726,-3.9752,-3.9831,-3.9861,-3.9901,-3.9934,-4.0028,-4.0082,-4.0099,-4.0133,-4.0199,-4.0257,-4.0262,-4.0286,-4.0315,-4.0316,-4.0182,-4.0164,-4.0146,-4.0124,-4.032,-4.0321,-4.0453,-4.0455,-4.0456]}]]